Hibbing, MN

6:38 AM CST on December 12, 2017 (GMT -0600)
Chisholm-hibbing

Weather History for KHIB - November, 2012

Change the Weather History Date:

Monday, November 12, 2012

  Actual Average Record
Temperature  
Mean Temperature 20 °F 28 °F  
Max Temperature 23 °F 37 °F 58 °F (1987)
Min Temperature 17 °F 19 °F -9 °F (1966)
Degree Days  
Heating Degree Days 45 37  
Month to date heating degree days 407  
Cooling Degree Days 0 0  
Month to date cooling degree days 0  
Moisture  
Dew Point 15 °F    
Average Humidity 77    
Maximum Humidity 86    
Minimum Humidity 71    
Precipitation  
Precipitation 0.00 in - 4.00 in (1996)
Sea Level Pressure  
Sea Level Pressure 29.91 in    
Wind  
Wind Speed 8 mph (West)    
Max Wind Speed 15 mph    
Max Gust Speed 25 mph    
Visibility 5 miles    
Events Snow    
T = Trace of Precipitation, MM = Missing Value Source: NWS Daily Summary

Daily Weather History Graph

Daily Weather History Graph

Search for Another Location

Airport or City:

Trip Planner

Search our weather history database for the weather conditions in past years. The results will help you decide how hot, cold, wet, or windy it might be!

Date:

Astronomy

Nov. 12, 2012 Rise Set
Actual Time 7:12 AM CST 4:38 PM CST
Civil Twilight 6:39 AM CST 5:11 PM CST
Nautical Twilight 6:01 AM CST 5:48 PM CST
Astronomical Twilight 5:25 AM CST 6:24 PM CST
Moon 5:34 AM CST 3:45 PM CST
Length of Visible Light 10h 32m
Length of Day
9h 26m
Waning Crescent, 2% of the Moon is Illuminated
Nov 12
Waning Crescent
Nov 13
New
Nov 20
First Quarter
Nov 28
Full
Dec 6
Last Quarter

Hourly Weather History & Observations

Time (CST) Temp. Windchill Dew Point Humidity Pressure Visibility Wind Dir Wind Speed Gust Speed Precip Events Conditions
12:53 AM 21.0 °F 12.4 °F 12.9 °F 71% 29.81 in 9.0 mi SW 6.9 mph 16.1 mph 0.00 in Snow Light Snow
1:53 AM 19.9 °F 9.3 °F 12.9 °F 74% 29.81 in 10.0 mi SW 9.2 mph - 0.00 in Snow Light Snow
2:18 AM 19.4 °F 11.5 °F 12.2 °F 74% 29.74 in 9.0 mi Variable 5.8 mph - 0.00 in Snow Light Snow
2:53 AM 19.9 °F 10.1 °F 12.0 °F 71% 29.81 in 8.0 mi SW 8.1 mph - 0.00 in Snow Light Snow
3:53 AM 19.9 °F 11.1 °F 12.9 °F 74% 29.81 in 8.0 mi SSW 6.9 mph - 0.00 in Snow Light Snow
4:09 AM 19.4 °F 11.5 °F 12.2 °F 74% 29.74 in 4.0 mi SW 5.8 mph - 0.00 in Snow Light Snow
4:53 AM 19.0 °F 12.3 °F 14.0 °F 81% 29.82 in 3.0 mi SW 4.6 mph - 0.00 in Snow Light Snow
5:00 AM 19.4 °F 11.5 °F 14.0 °F 80% 29.75 in 2.5 mi SW 5.8 mph - 0.00 in Snow Light Snow
5:07 AM 19.4 °F 10.4 °F 14.0 °F 80% 29.75 in 2.5 mi WSW 6.9 mph - 0.00 in Snow Light Snow
5:17 AM 19.4 °F 9.5 °F 14.0 °F 80% 29.75 in 3.0 mi SW 8.1 mph - 0.00 in Snow Light Snow
5:25 AM 19.4 °F 12.8 °F 14.0 °F 80% 29.75 in 2.5 mi SW 4.6 mph - 0.00 in Snow Light Snow
5:53 AM 19.0 °F 10.0 °F 14.0 °F 81% 29.83 in 2.5 mi WSW 6.9 mph - 0.00 in Snow Light Snow
6:08 AM 19.4 °F 9.5 °F 14.0 °F 80% 29.76 in 1.5 mi WSW 8.1 mph - 0.00 in Snow Light Snow
6:53 AM 19.0 °F 11.1 °F 12.9 °F 77% 29.84 in 3.0 mi WSW 5.8 mph - 0.00 in Snow Light Snow
7:29 AM 17.6 °F 9.3 °F 12.2 °F 79% 29.77 in 8.0 mi West 5.8 mph - 0.00 in Snow Light Snow
7:53 AM 18.0 °F 8.7 °F 12.0 °F 78% 29.86 in 10.0 mi West 6.9 mph - 0.00 in   Overcast
8:38 AM 17.6 °F 6.4 °F 12.2 °F 79% 29.79 in 3.0 mi WSW 9.2 mph - 0.00 in Snow Light Snow
8:53 AM 19.0 °F 10.0 °F 12.0 °F 74% 29.87 in 2.5 mi WSW 6.9 mph - 0.00 in Snow Light Snow
9:53 AM 19.0 °F 8.2 °F 12.9 °F 77% 29.88 in 1.8 mi WSW 9.2 mph - 0.00 in Snow Light Snow
10:05 AM 19.4 °F 8.6 °F 12.2 °F 74% 29.81 in 2.0 mi WSW 9.2 mph - 0.00 in Snow Light Snow
10:32 AM 19.4 °F 12.8 °F 15.8 °F 86% 29.82 in 1.5 mi Variable 4.6 mph - 0.00 in Snow Light Snow
10:53 AM 21.0 °F 11.4 °F 15.1 °F 78% 29.89 in 1.5 mi WSW 8.1 mph - 0.00 in Snow Light Snow
11:53 AM 21.9 °F 11.0 °F 16.0 °F 78% 29.90 in 2.5 mi West 10.4 mph 19.6 mph 0.00 in Snow Light Snow
12:21 PM 21.2 °F 9.5 °F 15.8 °F 80% 29.83 in 1.2 mi West 11.5 mph 18.4 mph 0.00 in Snow Light Snow
12:37 PM 23.0 °F 13.1 °F 15.8 °F 74% 29.84 in 2.5 mi West 9.2 mph 23.0 mph 0.00 in Snow Light Snow
12:53 PM 23.0 °F 11.1 °F 15.1 °F 72% 29.91 in 4.0 mi West 12.7 mph 20.7 mph 0.00 in Snow Light Snow
1:53 PM 23.0 °F 10.6 °F 15.1 °F 72% 29.94 in 3.0 mi West 13.8 mph 21.9 mph 0.00 in Snow Light Snow
2:06 PM 23.0 °F 12.4 °F 15.8 °F 74% 29.87 in 2.5 mi West 10.4 mph 18.4 mph 0.00 in Snow Light Snow
2:13 PM 23.0 °F 10.6 °F 15.8 °F 74% 29.87 in 3.0 mi WNW 13.8 mph 19.6 mph 0.00 in Snow Light Snow
2:26 PM 23.0 °F 11.7 °F 15.8 °F 74% 29.88 in 5.0 mi West 11.5 mph 20.7 mph 0.00 in Snow Light Snow
2:53 PM 23.0 °F 14.7 °F 16.0 °F 74% 29.96 in 4.0 mi West 6.9 mph 18.4 mph 0.00 in Snow Light Snow
3:50 PM 23.0 °F 12.4 °F 15.8 °F 74% 29.92 in 2.0 mi West 10.4 mph 21.9 mph 0.00 in Snow Light Snow
3:53 PM 23.0 °F 12.4 °F 16.0 °F 74% 30.00 in 2.0 mi West 10.4 mph 20.7 mph 0.00 in Snow Light Snow
4:11 PM 23.0 °F 13.1 °F 15.8 °F 74% 29.94 in 3.0 mi West 9.2 mph 18.4 mph 0.00 in Snow Light Snow
4:43 PM 23.0 °F 13.1 °F 17.6 °F 80% 29.96 in 2.0 mi West 9.2 mph - 0.00 in Snow Light Snow
4:53 PM 23.0 °F 13.1 °F 17.1 °F 78% 30.04 in 3.0 mi West 9.2 mph 17.3 mph 0.00 in Snow Light Snow
5:53 PM 23.0 °F 12.4 °F 17.1 °F 78% 30.08 in 7.0 mi WNW 10.4 mph 19.6 mph 0.00 in Snow Light Snow
6:16 PM 21.2 °F 7.8 °F 17.6 °F 86% 30.02 in 9.0 mi WNW 15.0 mph 21.9 mph 0.00 in Snow Light Snow
6:53 PM 21.9 °F 10.4 °F 17.1 °F 82% 30.11 in 10.0 mi WNW 11.5 mph 20.7 mph 0.00 in   Overcast
7:23 PM 21.2 °F 9.5 °F 15.8 °F 80% 30.05 in 10.0 mi WNW 11.5 mph 25.3 mph N/A   Overcast
7:48 PM 21.2 °F 9.5 °F 15.8 °F 80% 30.06 in 10.0 mi WNW 11.5 mph 19.6 mph 0.00 in   Overcast
7:53 PM 21.9 °F 9.8 °F 16.0 °F 78% 30.14 in 10.0 mi WNW 12.7 mph - 0.00 in   Overcast
8:53 PM 21.9 °F 11.0 °F 16.0 °F 78% 30.17 in 10.0 mi WNW 10.4 mph - N/A   Overcast
9:53 PM 21.9 °F 14.5 °F 16.0 °F 78% 30.19 in 10.0 mi West 5.8 mph - N/A   Overcast
10:53 PM 21.0 °F 12.4 °F 15.1 °F 78% 30.21 in 10.0 mi WNW 6.9 mph - N/A   Overcast
11:53 PM 21.0 °F 12.4 °F 15.1 °F 78% 30.23 in 10.0 mi WNW 6.9 mph - N/A   Overcast